Portada
METAR-TAF:

METAR-TAF

Aeroports :

Moorhead Municipal Airport

Moorhead, Minnesota, Estats Units d'Amèrica

latitud: 46-50-21N, longitud: 096-39-47W, altitud: 280 m

Observació

L'informe es va fer fa 12 minuts, a les 22:55 UTC
Vent 5 kt del Sud
Temperatura 2°C
Humitat 55%
Pressió 1009 hPa
Cel clar

METAR: KJKJ 222255Z AUTO 17005KT CLR 02/M06 A2979 RMK AO2 PWINO

Hora: 17:07 (23:07 UTC)


TAF: manca

Observacions i pronòstics meteorològics de més de 4000 aeroports (METAR i TAF).

Les estacions disponibles són els punts grocs i vermells al mapa.

Posi el ratolí al punt desitjat per veure el nom de l'estació.

Feu clic per veure les observacions i els pronòstics meteorològics.

Per canviar el mapa: feu clic els botons verds amb una creu de color negre per apropar; al botó verd amb un guió per allunyar la imatge; o en les fletxes verdes per a mapes adjacents.


METAR-TAF: